[[{"header":{"parameterUnit":"m.s-1","parameterCategory":1,"la1":30.2991,"la2":30.254,"lo1":-89.0895,"lo2":-89.0444,"dy":0.0017,"dx":0.0017,"nx":28,"ny":28,"refTime":"2023-11-06T09:00:00:Z","depth":0,"parameterNumber":2,"parameterNumberName":"U-component_of_WINDS"},"data":[0,0,0,0,0,0,0,0,0,0,0,0,0,0,0,0,0,0,0,0,0,0,0,0,0,0,0,0,0,0,0,0,0,0,0,0,0,0,0,0,0,0,0,0,0,0,0,0,0,0,0,0,0,0,0,0,0,0,-0.75,-0.7499,0,-0.7427,-0.7427,-0.7426,-0.7409,-0.741,-0.741,-0.7411,-0.7333,-0.733,-0.7328,0,0,0,0,0,0,0,0,0,0,0,0,0,-0.7622,-0.7619,-0.75,-0.7499,-0.7498,-0.7427,-0.7426,-0.7425,-0.7409,-0.741,-0.7411,-0.7411,-0.7334,-0.7331,-0.7328,0,0,0,0,0,0,0,0,0,0,0,0,0,-0.7561,-0.7619,-0.75,-0.7482,-0.7479,-0.7428,-0.7426,-0.7425,-0.7409,-0.741,-0.7411,-0.7411,-0.7335,-0.7331,-0.7327,-0.7288,0,0,-0.7315,-0.7314,0,0,0,0,0,0,0,0,-0.7564,-0.7556,-0.7485,-0.7483,-0.748,-0.7428,-0.7441,-0.7379,-0.7409,-0.7436,-0.7411,-0.7412,-0.7364,-0.7358,-0.7342,-0.7284,-0.7281,-0.7315,-0.7313,-0.7311,-0.731,0,0,0,0,0,0,0,-0.7569,-0.7559,-0.7471,-0.7484,-0.7481,-0.7476,-0.7468,-0.7429,-0.7396,-0.7433,-0.7432,-0.7424,-0.7362,-0.7346,-0.734,-0.728,-0.7315,-0.7312,-0.7309,-0.7308,-0.7185,-0.7184,0,0,0,0,0,0,-0.7576,-0.7563,-0.7473,-0.7469,-0.7525,-0.7473,-0.7465,-0.7444,-0.7396,-0.739,-0.7423,-0.7423,-0.7352,-0.7345,-0.7337,-0.7287,-0.7311,-0.7308,-0.7305,-0.7186,-0.7184,-0.7183,0,0,0,0,0,0,-0.7579,-0.7569,-0.7476,-0.7516,-0.7504,-0.747,-0.7447,-0.7442,-0.7426,-0.7389,-0.7383,-0.7413,-0.7352,-0.7343,-0.73,-0.7284,-0.7306,-0.7302,-0.7187,-0.7185,-0.7184,-0.7187,0,0,0,0,0,0,-0.7583,-0.757,-0.7555,-0.7515,-0.7502,-0.7441,-0.7446,-0.744,-0.7419,-0.7419,-0.7377,-0.7371,-0.7352,-0.7306,-0.7296,-0.7279,-0.7299,-0.7188,-0.7186,-0.7184,-0.7188,-0.7185,-0.7183,0,0,0,0,0,-0.7587,-0.7558,-0.7554,-0.7544,-0.7483,-0.744,-0.7432,-0.7412,-0.7418,-0.7403,-0.7379,-0.7372,-0.7288,-0.7302,-0.7291,-0.7272,-0.7189,-0.7187,-0.7185,-0.7189,-0.7186,-0.7183,0,0,0,0,0,0,-0.7595,-0.7552,-0.7548,-0.7505,-0.7477,-0.7438,-0.7417,-0.741,-0.7379,-0.7379,-0.7355,-0.7346,-0.7304,-0.7284,-0.7301,-0.7231,-0.7239,-0.7234,-0.7245,-0.7242,-0.724,-0.7245,-0.7296,0,0,0,0,0,-0.7592,-0.7563,-0.7527,-0.7492,-0.7479,-0.7451,-0.7432,-0.7419,-0.7388,-0.7375,-0.7349,-0.7318,-0.7284,-0.7263,-0.723,-0.7186,-0.7175,-0.7167,-0.7165,-0.7164,-0.7159,-0.7133,-0.7129,-0.7176,-0.7176,-0.7176,0,0,-0.7585,-0.7558,-0.7541,-0.7493,-0.747,-0.7438,-0.744,-0.7407,-0.7383,-0.737,-0.7328,-0.7308,-0.7272,-0.7228,-0.7207,-0.721,-0.7144,-0.7161,-0.716,-0.7156,-0.713,-0.7126,-0.7122,-0.7175,-0.7175,-0.7175,0,0,-0.7556,-0.7533,-0.7502,-0.7479,-0.7444,-0.7425,-0.7418,-0.738,-0.7366,-0.7325,-0.7314,-0.7285,-0.7228,-0.7202,-0.7182,-0.7145,-0.7136,-0.7135,-0.7122,-0.7097,-0.7093,-0.709,-0.7075,-0.707,-0.7131,-0.7131,-0.7131,0,-0.7551,-0.7504,-0.7486,-0.7454,-0.7433,-0.7421,-0.7388,-0.7366,-0.7322,-0.7307,-0.7311,-0.724,-0.7215,-0.7164,-0.7155,-0.714,-0.7129,-0.7138,-0.7096,-0.7092,-0.7088,-0.7074,-0.7068,-0.7131,-0.7131,-0.7131,-0.7131,0,-0.7499,-0.7468,-0.7446,-0.7405,-0.7382,-0.7349,-0.7325,-0.7304,-0.7294,-0.7275,-0.7232,-0.7202,-0.7163,-0.715,-0.714,-0.7098,-0.7101,-0.7101,-0.7107,-0.7084,-0.707,-0.7064,-0.7131,-0.7131,-0.7131,-0.7131,0,0,-0.7471,-0.7421,-0.7413,-0.7394,-0.7355,-0.7329,-0.7297,-0.7259,-0.7241,-0.7211,-0.7181,-0.7134,-0.7134,-0.7111,-0.7098,-0.7076,-0.7047,-0.7078,-0.7077,-0.7072,-0.6997,-0.6996,-0.699,-0.7042,-0.7041,-0.704,-0.7,0,-0.7436,-0.7377,-0.736,-0.731,-0.728,-0.7269,-0.724,-0.7212,-0.7194,-0.7165,-0.7145,-0.7111,-0.7114,-0.71,-0.7078,-0.7055,-0.7031,-0.7058,-0.7013,-0.7011,-0.702,-0.6983,-0.6981,-0.6944,-0.6994,-0.6993,-0.6993,0,-0.7386,-0.7356,-0.7303,-0.7268,-0.7255,-0.7229,-0.7194,-0.7167,-0.7135,-0.7123,-0.7098,-0.7087,-0.7051,-0.7061,-0.7011,-0.7029,-0.701,-0.6996,-0.6994,-0.6987,-0.6999,-0.6973,-0.6932,-0.6926,-0.6984,-0.6985,-0.6985,0,-0.7368,-0.7315,-0.7276,-0.7261,-0.7219,-0.7201,-0.7183,-0.7152,-0.7131,-0.71,-0.7086,-0.7051,-0.7031,-0.7003,-0.6982,-0.6992,-0.6933,-0.6942,-0.692,-0.6921,-0.6906,-0.6907,-0.6859,-0.6898,-0.6898,-0.6898,-0.6898,0,-0.7329,-0.7296,-0.7268,-0.7244,-0.7207,-0.7189,-0.7152,-0.7133,-0.7106,-0.7078,-0.7067,-0.704,-0.7015,-0.6984,-0.6968,-0.6927,-0.6919,-0.6907,-0.6903,-0.6907,-0.6908,-0.6892,-0.6893,-0.6896,-0.6897,-0.6897,-0.6897,0,-0.7301,-0.7281,-0.7238,-0.7203,-0.7194,-0.7168,-0.7137,-0.7113,-0.7096,-0.7059,-0.705,-0.7021,-0.6985,-0.6962,-0.6916,-0.6905,-0.686,-0.6857,-0.687,-0.6868,-0.6847,-0.6848,-0.6786,-0.6776,-0.6823,-0.6822,-0.6822,0,-0.7277,-0.7252,-0.7214,-0.7195,-0.7177,-0.7146,-0.7124,-0.7105,-0.7083,-0.7046,-0.7025,-0.6989,-0.6958,-0.69,-0.6875,-0.6839,-0.6834,-0.6815,-0.6828,-0.6833,-0.6831,-0.6832,-0.6828,-0.6811,-0.6811,-0.6811,-0.681,0,-0.7234,-0.7225,-0.7196,-0.7162,-0.7137,-0.711,-0.7082,-0.7067,-0.7043,-0.7019,-0.6982,-0.6958,-0.6912,-0.6874,-0.6837,-0.6817,-0.6808,-0.6807,-0.68,-0.6802,-0.681,-0.6803,-0.6862,-0.6808,-0.6808,-0.6808,-0.6808,-0.6808,-0.7205,-0.7182,-0.7153,-0.712,-0.7097,-0.7072,-0.7048,-0.7028,-0.6997,-0.6958,-0.6949,-0.691,-0.6879,-0.6827,-0.6807,-0.6775,-0.6778,-0.6768,-0.6764,-0.6762,-0.676,-0.6818,-0.6768,-0.6769,-0.6769,-0.6769,-0.6769,0,-0.716,-0.7141,-0.7111,-0.7074,-0.7047,-0.7045,-0.7015,-0.6992,-0.6959,-0.6931,-0.6902,-0.6859,-0.6823,-0.6796,-0.6759,-0.6739,-0.6734,-0.673,-0.6729,-0.6725,-0.6761,-0.677,-0.6734,-0.6734,-0.6734,-0.6734,-0.6734,-0.6734,-0.7134,-0.7094,-0.7082,-0.7032,-0.7012,-0.6975,-0.6958,-0.6934,-0.6912,-0.6865,-0.6836,-0.6819,-0.6791,-0.6752,-0.6719,-0.6712,-0.6697,-0.6693,-0.6685,-0.6719,-0.6722,-0.6726,-0.6734,-0.6691,-0.6691,-0.665,-0.665,-0.665]},{"header":{"parameterUnit":"m.s-1","parameterCategory":1,"la1":30.2991,"la2":30.254,"lo1":-89.0895,"lo2":-89.0444,"dy":0.0017,"dx":0.0017,"nx":28,"ny":28,"refTime":"2023-11-06T09:00:00:Z","depth":0,"parameterNumber":3,"parameterNumberName":"V-component_of_WINDS"},"data":[0,0,0,0,0,0,0,0,0,0,0,0,0,0,0,0,0,0,0,0,0,0,0,0,0,0,0,0,0,0,0,0,0,0,0,0,0,0,0,0,0,0,0,0,0,0,0,0,0,0,0,0,0,0,0,0,0,0,1.796,1.796,0,1.7938,1.7938,1.7938,1.7899,1.7898,1.7897,1.7897,1.7875,1.7875,1.7876,0,0,0,0,0,0,0,0,0,0,0,0,0,1.797,1.797,1.796,1.796,1.796,1.7938,1.7938,1.7937,1.7899,1.7898,1.7897,1.7896,1.7875,1.7875,1.7876,0,0,0,0,0,0,0,0,0,0,0,0,0,1.7959,1.797,1.796,1.7938,1.7936,1.7938,1.7938,1.7937,1.7899,1.7898,1.7897,1.7896,1.7875,1.7875,1.7876,1.7899,0,0,1.7876,1.7876,0,0,0,0,0,0,0,0,1.796,1.7959,1.7941,1.7939,1.7937,1.792,1.7933,1.7924,1.7899,1.7913,1.7897,1.7895,1.7891,1.789,1.7888,1.7898,1.7897,1.7876,1.7876,1.7876,1.7876,0,0,0,0,0,0,0,1.796,1.7959,1.7951,1.7941,1.7938,1.7929,1.7926,1.7932,1.7909,1.7912,1.7909,1.7907,1.789,1.7888,1.7887,1.7896,1.7876,1.7876,1.7876,1.7876,1.7923,1.7924,0,0,0,0,0,0,1.7964,1.796,1.7952,1.7951,1.7946,1.793,1.7927,1.7927,1.7908,1.7905,1.7908,1.7905,1.7888,1.7887,1.7887,1.7912,1.7876,1.7876,1.7877,1.7922,1.7923,1.7925,0,0,0,0,0,0,1.7965,1.7964,1.7953,1.7955,1.7953,1.7931,1.7931,1.7927,1.7925,1.7905,1.7901,1.791,1.7888,1.7886,1.7896,1.7911,1.7876,1.7877,1.7921,1.7923,1.7924,1.7964,0,0,0,0,0,0,1.7965,1.7964,1.7973,1.7955,1.7953,1.7962,1.7932,1.7927,1.7925,1.7922,1.7907,1.7903,1.7887,1.7896,1.7896,1.7911,1.7877,1.7919,1.7922,1.7924,1.7961,1.7967,1.7972,0,0,0,0,0,1.7966,1.7985,1.7973,1.7973,1.7963,1.7963,1.7962,1.7942,1.7927,1.7935,1.7922,1.7904,1.7909,1.7897,1.7897,1.7912,1.7918,1.7921,1.7923,1.7959,1.7966,1.7971,0,0,0,0,0,0,1.8006,1.7982,1.7969,1.7983,1.7976,1.7957,1.7967,1.795,1.7947,1.7944,1.792,1.7917,1.7929,1.7921,1.7908,1.7933,1.7911,1.7913,1.7938,1.7944,1.7949,1.7951,1.7877,0,0,0,0,0,1.8016,1.8018,1.7998,1.8013,1.8009,1.7989,1.7988,1.7974,1.7965,1.7962,1.7949,1.7942,1.7942,1.7943,1.7941,1.796,1.7956,1.797,1.7975,1.798,1.7982,1.7991,1.7997,1.7933,1.7933,1.7933,0,0,1.8038,1.8025,1.8028,1.802,1.8013,1.8016,1.7986,1.7991,1.7993,1.7962,1.797,1.7961,1.7951,1.7965,1.7971,1.7959,1.7999,1.7983,1.7986,1.7987,1.7995,1.8001,1.8006,1.7935,1.7935,1.7934,0,0,1.8079,1.807,1.8081,1.8073,1.8062,1.8048,1.8051,1.8034,1.8027,1.8034,1.8011,1.8014,1.8014,1.8008,1.8005,1.8043,1.8026,1.8044,1.8071,1.808,1.8085,1.8089,1.8103,1.8109,1.8046,1.8046,1.8046,0,1.8107,1.8111,1.8089,1.8095,1.8092,1.8063,1.8075,1.8069,1.8058,1.8057,1.8043,1.8043,1.8035,1.8047,1.8056,1.8054,1.8057,1.8045,1.8086,1.809,1.8094,1.8107,1.8112,1.8049,1.8048,1.8048,1.8048,0,1.8147,1.8149,1.816,1.8149,1.8147,1.8156,1.8135,1.8136,1.8122,1.811,1.8118,1.8106,1.8102,1.8104,1.809,1.8114,1.8107,1.809,1.8068,1.8103,1.8115,1.8119,1.8052,1.8051,1.805,1.805,0,0,1.8213,1.8189,1.8194,1.8188,1.8173,1.8175,1.8182,1.8178,1.8179,1.8173,1.8178,1.8179,1.8164,1.816,1.8145,1.8153,1.8184,1.8135,1.8135,1.8145,1.821,1.8223,1.8229,1.8173,1.8173,1.8174,1.8211,0,1.8251,1.8262,1.8242,1.8258,1.826,1.8233,1.8239,1.8231,1.8219,1.822,1.8207,1.8208,1.8188,1.8185,1.8192,1.8179,1.8197,1.8176,1.8178,1.8178,1.8182,1.8235,1.8249,1.8285,1.8216,1.8216,1.8217,0,1.8297,1.8292,1.8308,1.8292,1.8292,1.8298,1.8292,1.8293,1.8283,1.8274,1.827,1.8252,1.8258,1.8236,1.8244,1.823,1.823,1.8224,1.8225,1.8225,1.82,1.8237,1.8295,1.8301,1.8224,1.8223,1.8223,0,1.8344,1.8341,1.835,1.8347,1.8328,1.8333,1.8325,1.8314,1.8312,1.8307,1.8306,1.8302,1.83,1.8298,1.8279,1.8265,1.829,1.8266,1.8283,1.8284,1.829,1.829,1.835,1.829,1.8289,1.8289,1.8289,0,1.8389,1.84,1.8371,1.8377,1.8388,1.8365,1.8377,1.8367,1.8357,1.836,1.8337,1.834,1.8316,1.8317,1.8302,1.8312,1.8311,1.8304,1.83,1.8306,1.8307,1.8306,1.8303,1.8291,1.829,1.829,1.829,0,1.8444,1.8425,1.8433,1.8414,1.841,1.8419,1.8403,1.8408,1.8394,1.8399,1.8399,1.8378,1.8378,1.8359,1.8356,1.8346,1.8362,1.8353,1.8365,1.8362,1.8381,1.8379,1.8442,1.8449,1.8384,1.8385,1.8385,0,1.8474,1.8482,1.8464,1.8464,1.8457,1.8458,1.8456,1.8434,1.8433,1.8422,1.8428,1.8426,1.8423,1.8424,1.8409,1.8406,1.8398,1.842,1.8397,1.8403,1.8399,1.8399,1.8399,1.8425,1.8426,1.8427,1.8427,0,1.853,1.852,1.8518,1.8513,1.8511,1.8506,1.85,1.8501,1.8477,1.8477,1.8476,1.8474,1.847,1.8469,1.8463,1.8455,1.8437,1.8434,1.8438,1.8445,1.8452,1.8448,1.8378,1.8433,1.8432,1.8432,1.8432,1.8431,1.8574,1.8579,1.8567,1.8566,1.8558,1.8552,1.8556,1.8543,1.8542,1.8536,1.8523,1.8525,1.8514,1.8504,1.8498,1.8499,1.8488,1.8494,1.8495,1.8497,1.8501,1.8451,1.8498,1.8498,1.8498,1.8498,1.8498,0,1.8628,1.8619,1.8618,1.8609,1.8608,1.8591,1.8582,1.8583,1.8584,1.8576,1.8573,1.8573,1.8571,1.8556,1.8552,1.8556,1.8548,1.8556,1.8556,1.8554,1.8511,1.8508,1.8563,1.8563,1.8563,1.8563,1.8563,1.8563,1.8657,1.8665,1.8654,1.8658,1.8649,1.865,1.8647,1.8641,1.8634,1.8635,1.8633,1.8622,1.8611,1.8606,1.8604,1.86,1.86,1.8611,1.8604,1.8564,1.8557,1.8551,1.8549,1.8611,1.8611,1.8647,1.8647,1.8648]}]]